www.pogodaiklimat.ru

Погода и климат >> Архив погоды >> Россия >> Мордовия >> Краснослободск


ПОГОДА в Краснослободске

  • Прогноз погоды в Краснослободске
  • Монитор погоды в Краснослободске
  • Климат города

АРХИВ ПОГОДЫ в Краснослободске

Время (UTC), дата Ветер
(напр.,м/с)
 
Видим.   Явления Облачность Т
(С)
Тd
(С)
f
(%)
Тe
(С)
Тes
(С)
Комфортность P
(гПа)
Po
(гПа)
Тmin
(С)
Tmax
(С)
R
(мм)
R24
(мм)
S
(см)
06 14.02 СВ 2-2
{2}
10 км ясно -13.6 -14.9 90 -18 -17 1033.0 1007.8 -14.6
09 14.02 В 2-2
{2}
10 км ясно -8.6 -12.9 71 -13 -10 1033.6 1008.9
12 14.02 В 2-4
{4}
20 км ясно -6.0 -10.4 71 -10 -9 1033.5 1008.9
15 14.02 В 2-2
{2}
10 км ясно -9.2 -12.2 79 -14 -14 1034.9 1010.1 -5.7
18 14.02 В 2-2
{2}
10 км ясно -11.4 -13.4 85 -16 -16 1035.9 1010.9
21 14.02 В 2-4
{4}
10 км ясно -12.8 -14.1 90 -17 -17 1036.4 1011.2
00 15.02 В 2-2
{2}
10 км ясно -14.6 -15.9 90 -20 -20 1037.3 1012.0
03 15.02 В 2-2
{2}
10 км ясно -15.5 -16.8 90 -21 -21 1038.3 1012.8 -15.6 15
06 15.02 В 2-4
{4}
10 км ясно -15.9 -17.8 85 -21 -20 1038.9 1013.3 -16.2
09 15.02 В 2-4
{4}
10 км 3/0
[Ci fib]
-11.3 -14.8 75 -16 -12 1039.4 1014.3
12 15.02 В 2-2
{2}
10 км 6/0
[Ci fib]
-7.9 -13.5 64 -12 -11 1039.5 1014.6
15 15.02 В 2-4
{4}
10 км 8/0
[Ci fib]
-9.9 -14.1 71 -14 -14 1039.9 1014.8 -7.6
18 15.02 В 2-4
{4}
10 км ясно -11.5 -13.5 85 -16 -16 1040.3 1015.2
21 15.02 В 2-4
{4}
10 км ясно -11.7 -13.7 85 -16 -16 1040.2 1015.0
00 16.02 В 2-4
{4}
10 км 9/0
[Ci fib]
-9.6 -12.2 81 -14 -14 1040.0 1015.0
03 16.02 ЮЗ 4-4
{4}
10 км 9/0
[As op]
-9.3 -12.3 79 -16 -16 1039.8 1014.8 -12.2 15
06 16.02 Ю 2-4
{4}
20 км 9/9 1000 м
[Sc]
-8.6 -11.9 77 -13 -13 1039.8 1014.9
09 16.02 Ю 2-2
{2}
20 км 9/9 600 м
[Sc]
-6.3 -11.3 68 -10 -10 1039.6 1014.9
12 16.02 Ю 2-2
{2}
20 км 9/9 600 м
[Sc]
-4.4 -10.9 60 -8 -8 1038.7 1014.2
15 16.02 Ю 2-2
{2}
10 км 9/9 600 м
[Sc]
-5.0 -9.9 68 -9 -9 1038.8 1014.2 -4.1
18 16.02 Ю 2-4
{4}
10 км 9/9 600 м
[Sc]
-6.3 -10.8 70 -10 -10 1038.3 1013.6
21 16.02 Ю 2-4
{4}
10 км 9/9 1000 м
[Sc]
-7.1 -11.4 71 -11 -11 1038.1 1013.3
00 17.02 ЮВ 4-6
{6}
10 км 6/0
[Ac trans]
-8.0 -12.1 72 -15 -15 1037.0 1012.3
03 17.02 ЮВ 4-6
{6}
10 км 4/0
[Ac trans]
-9.4 -13.4 73 -16 -16 1036.1 1011.3 -9.5 15
06 17.02 Ю 4-4
{4}
20 км 9/0
[Ac trans]
-9.2 -13.2 73 -16 -16 1035.4 1010.6
09 17.02 ЮВ 4-6
{6}
10 км слабый снег 10/10 300 м
[Frnb Ns]
-7.5 -10.5 79 -14 -14 1034.6 1010.0
12 17.02 З 4-8
{8}
10 км слабый снег {метель} 10/10 300 м
[Frnb Ns]
-6.4 -8.7 84 -13 -13 1032.7 1008.1
15 17.02 Ю 4-6
{6}
10 км слабый снег {метель} 10/10 300 м
[Frnb Ns]
-6.3 -9.0 81 -13 -13 1031.6 1007.2 -5.2 0.9
18 17.02 Ю 4-6
{6}
10 км {снег, метель} 8/0
[As op]
-5.7 -11.4 64 -12 -12 1030.5 1006.2
21 17.02 ЮВ 4-6
{6}
10 км 9/0
[As op]
-6.8 -12.0 66 -13 -13 1029.6 1005.1
00 18.02 ЮВ 4-4
{4}
10 км 9/0
[As op]
-8.1 -13.2 67 -15 -15 1028.7 1004.1
03 18.02 ЮВ 4-4
{4}
10 км 9/0
[As op]
-7.7 -12.2 70 -14 -14 1027.4 1002.8 -8.2 0.0 16
06 18.02 ЮВ 4-6
{6}
20 км 9/0
[As op]
-7.6 -12.6 67 -14 -14 1026.5 1002.1
09 18.02 ЮВ 6-8
{8}
10 км слабый снег {метель} 10/10 300 м
[Frnb Ns]
-6.3 -9.4 79 -14 -14 1025.4 1001.1
12 18.02 ЮВ 4-6
{6}
4000 м слабый снег {метель} 10/10 300 м
[Frnb Ns]
-5.4 -7.5 85 -12 -12 1023.7 999.5
15 18.02 ЮВ 4-6
{6}
10 км слабый снег 10/10 300 м
[Frnb Ns]
-5.9 -7.4 89 -12 -12 1022.3 998.0 -5.1 2
18 18.02 ЮВ 4-6
{6}
4000 м слабый снег 10/10 300 м
[Frnb Ns]
-7.9 -10.1 84 -15 -15 1022.2 997.7
21 18.02 ЮВ 4-6
{6}
10 км в посл. час снег 10/10 300 м
[St]
-10.0 -12.0 85 -17 -17 1021.5 996.9
00 19.02 ЮВ 4-6
{6}
10 км {снег} 9/0
[As op]
-10.8 -12.8 85 -18 -18 1021.2 996.6
03 19.02 Ю 4-4
{4}
10 км слабый снег 10/10 300 м
[Frnb Ns]
-10.8 -12.1 90 -18 -18 1020.3 995.7 -10.9 2 19
06 19.02 Ю 4-6
{6}
20 км {снег} 9/9 600 м
[Sc]
-11.0 -12.3 90 -18 -18 1020.5 995.9 -11.1
09 19.02 Ю 2-4
{4}
20 км 9/9 1000 м
[Sc]
-7.4 -9.5 85 -12 -11 1019.9 995.6
12 19.02 Ю 2-4
{4}
10 км слабый снег 10/10 300 м
[Frnb Ns]
-4.3 -6.6 84 -8 -8 1018.7 994.7
15 19.02 Ю 2-4
{4}
10 км слабый снег 10/10 300 м
[Frnb Ns]
-3.7 -5.2 89 -8 -8 1018.4 994.5 -3.4 0.2
18 19.02 Ю 2-4
{4}
10 км слабый снег 10/10 300 м
[Frnb Ns]
-4.1 -5.0 93 -8 -8 1018.2 994.2
21 19.02 Ю 2-2
{2}
10 км слабый снег 10/10 300 м
[Frnb Ns]
-4.5 -5.4 93 -9 -9 1017.4 993.4
00 20.02 Ю 2-2
{2}
10 км {снег} 10/10 300 м
[St]
-5.7 -6.8 92 -10 -10 1017.1 993.0
03 20.02 ЮЗ 2-2
{2}
10 км слабый снег 10/10 300 м
[Frnb Ns]
-5.5 -6.6 92 -10 -10 1016.4 992.4 -6.7 2 20
06 20.02 ЮЗ 2-2
{2}
10 км слабый снег 10/10 300 м
[Frnb Ns]
-5.4 -6.4 93 -10 -10 1016.4 992.4
09 20.02 ЮЗ 2-4
{4}
4000 м слабый снег 10/10 300 м
[Frnb Ns]
-3.9 -5.1 91 -8 -8 1016.2 992.3
12 20.02 З 2-2
{2}
10 км слабый снег 10/10 300 м
[Frnb Ns]
-3.4 -5.9 83 -7 -7 1016.1 992.3
15 20.02 З 2-2
{2}
10 км слабый снег 10/10 300 м
[Frnb Ns]
-5.2 -6.6 90 -10 -10 1017.0 992.9 -3.1 0.3
18 20.02 З 2-2
{2}
10 км слабый снег 10/10 300 м
[Frnb Ns]
-7.2 -8.5 90 -12 -12 1018.3 994.0
21 20.02 З 2-2
{2}
10 км слабый снег 10/10 300 м
[Frnb Ns]
-8.6 -10.1 89 -13 -13 1018.5 994.0
00 21.02 З 2-4
{4}
4000 м слабый снег 10/10 300 м
[Frnb Ns]
-9.4 -10.6 91 -14 -14 1018.9 994.4

 

Местоположение метеостанции Краснослободск (Мордовия, Россия): широта 54.43 долгота 43.77 высота над уровнем моря 188 м.

В архиве по умолчанию представлена погода в Краснослободске за последнюю неделю. Архивные данные за месяц целиком и за предыдущие месяцы, начиная с января 2011 года, Вы можете получить, выбрав интересующий диапазон дат из раскрывающегося списка и нажав кнопку "Ввод!".

Внимание! Время в таблицах - всемирное. Для получения местного времени необходимо прибавить поправку, которая в Краснослободске равна 3 ч.

Смотрите также архив погоды в соседних городах и на ближайших метеорологических станциях:

Погода в Темникове (Мордовия, Россия) (41 км)
Погода в Торбеево (Мордовия, Россия) (52 км)
Погода в Инсаре (Мордовия, Россия) (74 км)
Погода в Лукоянове (Нижегородская область, Россия) (82 км)
Погода в Саранске (Мордовия, Россия) (102 км)
Погода в Арзамасе (Нижегородская область, Россия) (105 км)
Погода в Сасово (Рязанская область, Россия) (116 км)
Погода в Большом Болдино (Нижегородская область, Россия) (119 км)
Погода в Пачелме (Пензенская область, Россия) (126 км)
Погода в Земетчино (Пензенская область, Россия) (129 км)

Пояснения к столбцам:

Ветер - указаны скорость ветра в м/с - средняя за 10 мин, порывы в срок и между сроками (в фигурных скобках) и направление, откуда дует ветер: С - северный, СВ - северо-восточный, В - восточный, ЮВ - юго-восточный, Ю - южный, ЮЗ - юго-западный, З - западный, СЗ - северо-западный.
Видимость - горизонтальная дальность видимости в метрах или километрах. При видимости от 1 до 10 км при отсутствии осадков обычно наблюдается дымка, при ухудшении видимости до 1 км и менее - туман. В сухую погоду видимость может ухудшаться дымом, пылью или мглою.
Явления - указаны атмосферные явления, наблюдавшиеся в срок или в последний час перед сроком; фигурными скобками обозначены явления, наблюдавшиеся между сроками (за 1-3 часа до срока); квадратными скобками обозначены град или гололедные отложения с указанием их диаметра в мм.
Облачность - указаны через наклонную черту общая и нижняя облачность в баллах и высота нижней границы облаков в метрах; квадратными скобками обозначены формы облаков: Ci - перистые, Cs - перисто-слоистые, Cc - перисто-кучевые, Ac - высококучевые, As - высокослоистые, Sc - слоисто-кучевые, Ns - слоисто-дождевые, Cu - кучевые, Cb - кучево-дождевые. Подробнее классификацию облаков см. в Атласе облаков (PDF).
T - Температура воздуха - температура, измеренная на высоте 2 м над землей.
Td - Температура точки росы - температура, при понижении до которой содержащийся в воздухе водяной пар достигнет насыщения.
f - Относительная влажность воздуха - влажноcть воздуха, измеренная на высоте 2 м над землей.
Te - Эффективная температура - температура, которую ощущает одетый по сезону человек в тени. Характеристика душности погоды. При расчете учитывается влияние влажности воздуха и скорости ветра на теплоощущения человека.
Tes - Эффективная температура на солнце - температура, которую ощущает человек, с поправкой на солнечный нагрев. Характеристика знойности погоды. Зависит от высоты солнца над горизонтом, облачности и скорости ветра. Ночью, в пасмурную погоду, а также при ветре 12 м/с и более поправка равна нулю.
P - Атмосферное давление - приведенное к уровню моря атмосферное давление.
Po - Атмосферное давление - измеренное на уровне метеостанции атмосферное давление.
Tmin - Минимальная температура - минимум температуры воздуха на высоте 2 м над землей.
Tmax - Максимальная температура - максимум температуры воздуха на высоте 2 м над землей.
R - Количество осадков - Количество выпавших осадков за период времени, мм. При наведении курсора мыши на число - период времени, за который выпало указанное количество осадков.
R24 - Количество осадков - Количество выпавших осадков за 24 часа, мм.
S - Снежный покров - Высота снежного покрова, см. При наведении курсора мыши на число - состояние снежного покрова и степень покрытия местности в баллах.